OBJECT L, 61237

Orbit data source: Space-Track

You're viewing an Uncataloged Satellite

Recently launched and/or uncataloged satellites may have evolving metadata. Metadata may include but not limited to: Owner, Maufacturer, Bus, Motor, and Mission.

OBJECT L, 61237 is a satellite owned by Changzheng H. (CN) in SSO that was launched on Tue, 24 Sep 2024 UTC launched from the Yellow Sea Launch Area, China (YSLA). Unknown objects in Earth's orbit typically refer to objects detected orbiting the Earth but have not yet been identified or cataloged. These objects could be anything from previously untracked satellites, spent rocket stages, debris from satellite collisions, or even natural meteoroids temporarily captured by Earth's gravity.

Loading next visibility...
Identifier
61237, 2024-173L
Orbit
SSO
Country
Flag of CNCN / PRC
Related business
Manufacturer
Changzheng H.
Mission
Spacecraft
Bus & Motor
Unknown
Mass
500 kg wet, 500 kg dry
Launch date (UTC)
2024-09-24 (1 year ago)
Launch vehicle
Unknown
Launch site
Yellow Sea Launch Area, China (YSLA)
Object type
Unknown
Shape & HBR
Unknown
Radar Cross Section
Large (>1 m²)

Expand to show TLE details & history
Last TLE update: 9 hours ago

TLE from 9 hours ago
0 OBJECT L
1 61237U 24173L   25260.85511061  .00206778  17111-4  80674-3 0  9991
2 61237  97.6457   5.4445 0024010  80.9126 279.4859 15.86577563 55810
Epoch: 2025-09-17T20:31Z
TLE epoch observation values (Epoch: 2025-09-17T20:31:21.556Z)
Latitude
-0.0001°
Longitude
60.57962°
Altitude
312.449 km
Speed
7.722 km/s
True Right ascension
00h 21m 46s
True Declination
0° 00' 00"
Sunlit
Object was in full shadow at epoch
Visualization orbit readout
Latitude
Unknown
Longitude
Unknown
Altitude
Unknown
Speed
Unknown
Apparent Right ascension
Unknown
Apparent Declination
Unknown
Sunlit
N/A
Visualization observer readout
Local Sidereal Time
22:27:06
Azimuth
Unknown
Elevation
Unknown
Doppler factor
Unknown
Orbital elements
Apogee altitude
324.83 km
Perigee altitude
292.719 km
Semi-major axis
6,686.912 km
Eccentricity
0.0024
Inclination
97.6457°
RAAN
5.4445°
Arg. of periapsis
80.9126°
True anomaly
279.21439°
Mean anomaly
279.4859°
Eccentric anomaly
279.35016°
Mean motion
3.96922 °/min
Orbital period
90.7 mins
BSTAR
0.00080674
Loading maneuver chart data...
Computing Atmospheric mass density...
Loading historical data...
Loading historical data...
Loading historical data...
Loading historical data...
Loading historical data...
Loading historical data...
Loading historical data...

Documentation

Showing up to 5 results
|